Regional Weather Roundup
Issued by NWS State College, PA

Home | Current Version | Previous Version | Graphics & Text | Print | Product List | Glossary On
Versions: 1 2 3 4 5 6 7 8 9 10 11 12 13 14 15 16 17 18 19 20 21 22 23 24 25 26 27 28 29 30 31 32 33 34 35 36 37 38 39 40 41 42 43 44 45 46 47 48 49 50
000
ASUS41 KCTP 300203
RWRCTP

REGIONAL WEATHER ROUNDUP
NATIONAL WEATHER SERVICE STATE COLLEGE PA
1000 PM EDT TUE JUL 29 2014

Note: "fair" indicates few or no clouds below 12,000 feet with no
significant weather and/or obstructions to visibility.

* = STATION THAT DOES NOT REPORT PRECIPITATION /E.G. RAIN...SNOW...ETC/
    THUNDER OR FOG.

PAZ002>004-007>009-013>016-020>023-029>032-300300-
WESTERN PENNSYLVANIA

CITY           SKY/WX    TMP DP  RH WIND       PRES   REMARKS
ERIE           CLOUDY    62  52  69 S7        30.00R
MEADVILLE      CLEAR     56  51  84 CALM      30.02S
FRANKLIN*      CLEAR     55  48  76 S3        30.04S
NEW CASTLE       N/A     55  52  90 CALM      30.04R
BEAVER COUNTY  NOT AVBL
BUTLER*        CLEAR     55  50  82 CALM      30.05S
PITTSBURGH INT CLEAR     60  52  74 SW3       30.04R
PITTSBURGH     CLEAR     62  49  62 SW5       30.04R
INDIANA*       CLOUDY    61  54  77 CALM      30.09R
LATROBE        PTCLDY    59  55  88 CALM      30.06R
WASHINGTON CO* CLEAR     54  52  94 CALM      30.06R
$$

PAZ004>006-010>012-017>019-024>028-033>037-041-042-045-046-049>053-300300-
CENTRAL PENNSYLVANIA

CITY           SKY/WX    TMP DP  RH WIND       PRES   REMARKS
BRADFORD       CLEAR     50  48  93 CALM      30.04R FOG
DUBOIS         PTCLDY    54  51  90 W3        30.04R
CLEARFIELD     CLOUDY    58  52  80 SW6       30.04R
JOHNSTOWN      PTCLDY    55  49  80 SW3       30.06R
ALTOONA        MOCLDY    57  53  86 SW3       30.05R
STATE COLLEGE  CLOUDY    62  53  72 CALM      30.03R
WILLIAMSPORT   CLOUDY    63  54  72 CALM      30.00R
SELINSGROVE    CLOUDY    58  56  93 CALM      30.01R
FT INDIANTOWN  NOT AVBL
CAPITAL CITY   PTCLDY    59  54  83 W5        30.01R
HARRISBURG     PTCLDY    63  54  72 NW5       30.00R
YORK           PTCLDY    57  54  89 CALM      30.01R
$$

PAZ038>040-043-044-047-048-054-055-060>062-067>071-300300-
EASTERN PENNSYLVANIA

CITY           SKY/WX    TMP DP  RH WIND       PRES   REMARKS
SCRANTON       CLOUDY    62  53  72 E3        30.00R
MOUNT POCONO   CLOUDY    57  49  74 NW5       30.02R
ALLENTOWN      PTCLDY    63  55  75 CALM      29.99R
QUAKERTOWN*    CLEAR     59  55  88 CALM      30.00R
READING        PTCLDY    63  54  72 CALM      29.98R
LANCASTER      CLOUDY    63  55  75 W5        30.00R
COATESVILLE    MOCLDY    64  64 100 NW6       30.01R
POTTSTOWN      PTCLDY    61  53  75 NW3       30.00R
BLUE BELL      MOCLDY    66  59  77 CALM      29.98R
DOYLESTOWN     PTCLDY    61  55  81 CALM      29.98R
WILLOW GROVE   NOT AVBL
NORTH PHILA    CLOUDY    71  51  49 NW5       29.99R
PHILADELPHIA   CLOUDY    72  54  53 NW8       29.98R
$$



USA.gov is the U.S. government's official web portal to all federal, state and local government web resources and services.